FW7072 Weather Reports


time (UTC)temp
F
wind
direction
speed
knots
gust
knots
rain 1hr
in
rain 24hr
in
rain mn
in
humidity
%
barometer
mb
20260508194500 69 325 0.9 0.9 0.00 0.00 0.00 37 1014.6
20260508193957 71 326 2.6 4.3 0.00 0.00 0.00 37 1014.7
20260508193453 70 302 1.7 1.7 0.00 0.00 0.00 38 1014.8
20260508192949 70 333 0.0 0.9 0.00 0.00 0.00 37 1014.7
20260508192446 70 309 0.0 0.9 0.00 0.00 0.00 39 1015.0
20260508191943 70 334 0.0 0.0 0.00 0.00 0.00 41 1015.0
20260508191441 69 322 0.9 0.9 0.00 0.00 0.00 39 1014.9
20260508190937 70 325 0.9 0.9 0.00 0.00 0.00 39 1015.2
20260508190435 69 342 0.0 0.9 0.00 0.00 0.00 41 1015.7
20260508185931 69 214 0.9 1.7 0.00 0.00 0.00 47 1015.6
20260508185428 68 324 0.9 0.9 0.00 0.00 0.00 41 1015.4
20260508184925 68 331 0.0 0.0 0.00 0.00 0.00 39 1015.7
20260508184422 68 106 2.6 2.6 0.00 0.00 0.00 43 1015.7
20260508183919 67 69 3.5 4.3 0.00 0.00 0.00 41 1016.0
20260508183416 68 303 0.9 1.7 0.00 0.00 0.00 48 1015.7
20260508182911 67 338 1.7 2.6 0.00 0.00 0.00 46 1015.7
20260508182408 67 331 0.9 0.9 0.00 0.00 0.00 44 1016.0
20260508181903 68 332 0.9 0.9 0.00 0.00 0.00 43 1016.1
20260508181400 67 330 0.0 0.0 0.00 0.00 0.00 45 1015.8
20260508180857 68 309 1.7 1.7 0.00 0.00 0.00 44 1016.0
20260508180354 68 302 0.9 0.9 0.00 0.00 0.00 49 1016.0
20260508175851 67 340 3.5 4.3 0.00 0.00 0.00 43 1016.0
20260508175347 66 352 1.7 1.7 0.00 0.00 0.00 44 1016.2
20260508174846 66 287 0.9 0.9 0.00 0.00 0.00 47 1016.4
20260508174343 66 338 2.6 4.3 0.00 0.00 0.00 47 1016.4
20260508173839 65 329 1.7 1.7 0.00 0.00 0.00 50 1016.6
20260508173336 67 334 3.5 4.3 0.00 0.00 0.00 51 1016.6
20260508172832 66 322 0.9 0.9 0.00 0.00 0.00 46 1016.8
20260508172329 65 342 2.6 2.6 0.00 0.00 0.00 46 1016.7
20260508171826 65 327 0.0 0.9 0.00 0.00 0.00 50 1016.8
20260508171322 65 332 0.9 1.7 0.00 0.00 0.00 47 1017.0
20260508170819 65 298 1.7 1.7 0.00 0.00 0.00 48 1017.0
20260508170317 63 329 1.7 2.6 0.00 0.00 0.00 50 1017.3
20260508165813 63 331 0.9 0.9 0.00 0.00 0.00 48 1017.4
20260508165311 63 28 0.9 0.9 0.00 0.00 0.00 52 1017.6
20260508164807 63 311 1.7 1.7 0.00 0.00 0.00 51 1017.5
20260508164303 63 332 0.9 0.9 0.00 0.00 0.00 55 1017.6
20260508163802 62 338 2.6 4.3 0.00 0.00 0.00 54 1017.8
20260508163259 63 91 3.5 4.3 0.00 0.00 0.00 58 1018.0
20260508162754 63 337 0.0 0.9 0.00 0.00 0.00 52 1017.9
20260508162251 63 334 0.9 0.9 0.00 0.00 0.00 52 1018.3
20260508161749 62 326 0.9 0.9 0.00 0.00 0.00 52 1018.2
20260508161246 64 169 3.5 5.2 0.00 0.00 0.00 52 1018.3
20260508160744 64 330 1.7 1.7 0.00 0.00 0.00 56 1018.5
20260508160242 62 331 0.0 0.9 0.00 0.00 0.00 58 1018.7
20260508155738 61 325 0.0 0.9 0.00 0.00 0.00 56 1018.6
20260508155235 61 332 0.9 0.9 0.00 0.00 0.00 55 1018.6
20260508154732 61 30 0.0 0.9 0.00 0.00 0.00 54 1018.7
20260508154230 60 62 1.7 2.6 0.00 0.00 0.00 57 1018.7
20260508153726 60 75 1.7 1.7 0.00 0.00 0.00 63 1018.9
20260508153223 59 356 0.9 0.9 0.00 0.00 0.00 62 1018.9
20260508152720 59 301 2.6 2.6 0.00 0.00 0.00 68 1018.8
20260508152215 59 325 0.9 0.9 0.00 0.00 0.00 72 1018.8
20260508151712 59 10 0.9 0.9 0.00 0.00 0.00 78 1019.1
20260508151209 59 326 0.0 0.0 0.00 0.00 0.00 78 1019.0
20260508150705 58 343 0.0 0.9 0.00 0.00 0.00 79 1019.2
20260508150202 57 30 0.0 0.9 0.00 0.00 0.00 81 1018.9
20260508145658 57 1 0.9 0.9 0.00 0.00 0.00 81 1019.1
20260508145154 56 319 1.7 1.7 0.00 0.00 0.00 84 1019.1
20260508144652 55 343 0.0 0.0 0.00 0.00 0.00 87 1019.0
20260508144149 55 340 2.6 2.6 0.00 0.00 0.00 85 1019.3
20260508143647 53 98 3.5 4.3 0.00 0.00 0.00 88 1019.1
20260508143144 54 328 0.9 1.7 0.00 0.00 0.00 88 1019.0
20260508142640 54 345 0.0 0.9 0.00 0.00 0.00 91 1019.2
20260508142137 52 326 1.7 1.7 0.00 0.00 0.00 93 1019.1
20260508141633 52 340 0.0 0.9 0.00 0.00 0.00 97 1018.9
20260508141131 50 67 0.9 1.7 0.00 0.00 0.00 99 1019.2
20260508140628 49 341 0.0 0.0 0.00 0.00 0.00 99 1019.1
20260508140125 49 329 0.9 0.9 0.00 0.00 0.00 99 1019.2
20260508135620 49 338 0.0 0.0 0.00 0.00 0.00 99 1019.0
20260508135116 49 345 0.0 0.0 0.00 0.00 0.00 99 1019.2
20260508134614 47 42 2.6 2.6 0.00 0.00 0.00 99 1019.2
20260508134111 47 41 2.6 2.6 0.00 0.00 0.00 99 1019.1
20260508133607 48 39 1.7 1.7 0.00 0.00 0.00 99 1019.1
20260508133104 48 325 0.0 0.0 0.00 0.00 0.00 99 1019.2
20260508132602 47 12 0.9 0.9 0.00 0.00 0.00 99 1019.2
20260508132059 47 15 0.9 0.9 0.00 0.00 0.00 99 1019.3
20260508131554 46 346 0.9 0.9 0.00 0.00 0.00 99 1019.1
20260508131051 46 51 0.9 1.7 0.00 0.00 0.00 99 1019.0
20260508130548 45 342 0.9 0.9 0.00 0.00 0.00 99 1019.0
20260508130045 45 347 0.9 0.9 0.00 0.00 0.00 99 1019.2
20260508125540 45 333 0.0 0.0 0.00 0.00 0.00 99 1019.2
20260508125038 45 33 0.0 0.9 0.00 0.00 0.00 99 1019.0
20260508124536 44 9 0.0 0.9 0.00 0.00 0.00 99 1019.1
20260508124033 44 318 0.0 0.9 0.00 0.00 0.00 99 1019.1
20260508123531 44 76 0.9 1.7 0.00 0.00 0.00 99 1019.0
20260508123027 43 335 0.0 0.0 0.00 0.00 0.00 99 1018.8
20260508122525 43 356 0.0 0.0 0.00 0.00 0.00 99 1018.9
20260508122021 43 351 0.9 0.9 0.00 0.00 0.00 99 1018.7
20260508121520 42 31 0.9 1.7 0.00 0.00 0.00 99 1018.8
20260508121018 42 86 2.6 2.6 0.00 0.00 0.00 99 1018.6
20260508120514 42 61 2.6 2.6 0.00 0.00 0.00 99 1018.5
20260508120013 42 67 0.9 1.7 0.00 0.00 0.00 99 1018.7
20260508115510 42 348 0.9 0.9 0.00 0.00 0.00 99 1018.5
20260508115006 42 19 0.9 0.9 0.00 0.00 0.00 99 1018.7
20260508114504 42 346 0.0 0.9 0.00 0.00 0.00 99 1018.4
20260508114000 42 2 0.0 0.9 0.00 0.00 0.00 99 1018.2
20260508113458 42 333 0.0 0.0 0.00 0.00 0.00 99 1018.0
20260508112954 42 333 0.0 0.0 0.00 0.00 0.00 99 1018.3
20260508112451 41 331 0.0 0.0 0.00 0.00 0.00 99 1017.9
20260508111948 41 344 0.0 0.0 0.00 0.00 0.00 99 1018.0
20260508111445 41 338 0.0 0.0 0.00 0.00 0.00 99 1018.2
20260508110942 40 334 0.0 0.0 0.00 0.00 0.00 99 1017.9
20260508110440 40 331 0.0 0.0 0.00 0.00 0.00 99 1017.8
20260508105939 40 335 0.0 0.0 0.00 0.00 0.00 99 1017.5
20260508105436 40 338 0.0 0.0 0.00 0.00 0.00 99 1017.6
20260508104933 40 330 0.0 0.0 0.00 0.00 0.00 99 1017.6
20260508104431 40 336 0.0 0.0 0.00 0.00 0.00 99 1017.2
20260508103927 40 348 0.0 0.0 0.00 0.00 0.00 99 1017.3
20260508103425 40 344 0.0 0.0 0.00 0.00 0.00 99 1017.2
20260508102921 40 336 0.0 0.0 0.00 0.00 0.00 99 1017.2
20260508102420 40 336 0.0 0.0 0.00 0.00 0.00 99 1017.4
20260508101917 40 347 0.0 0.0 0.00 0.00 0.00 99 1017.3
20260508101414 40 1 0.0 0.9 0.00 0.00 0.00 99 1017.3
20260508100911 40 333 0.0 0.0 0.00 0.00 0.00 99 1016.9
20260508100410 41 332 0.0 0.0 0.00 0.00 0.00 99 1016.9
20260508095910 41 335 0.0 0.0 0.00 0.00 0.00 99 1017.1
20260508095409 41 345 0.0 0.0 0.00 0.00 0.00 99 1017.0
20260508094905 41 351 0.0 0.0 0.00 0.00 0.00 99 1017.3
20260508094402 41 353 0.9 0.9 0.00 0.00 0.00 99 1017.2
20260508093859 42 345 0.0 0.0 0.00 0.00 0.00 99 1017.1
20260508093357 42 333 0.0 0.0 0.00 0.00 0.00 99 1017.3
20260508092854 42 340 0.0 0.0 0.00 0.00 0.00 99 1017.2
20260508092352 42 348 0.0 0.0 0.00 0.00 0.00 99 1017.1
20260508091850 42 1 0.9 1.7 0.00 0.00 0.00 99 1017.1
20260508091345 43 337 0.0 0.0 0.00 0.00 0.00 99 1017.0
20260508090844 43 342 0.0 0.0 0.00 0.00 0.00 99 1016.9
20260508090342 44 338 0.0 0.0 0.00 0.00 0.00 99 1017.3
20260508085837 44 329 0.0 0.0 0.00 0.00 0.00 99 1016.9
20260508085335 44 335 0.0 0.0 0.00 0.00 0.00 99 1016.9
20260508084831 44 341 0.0 0.0 0.00 0.00 0.00 99 1016.9
20260508084328 44 334 0.0 0.0 0.00 0.00 0.00 99 1016.8
20260508083826 44 333 0.0 0.0 0.00 0.00 0.00 99 1016.9
20260508083323 44 331 0.0 0.0 0.00 0.00 0.00 99 1016.8
20260508082823 44 333 0.0 0.0 0.00 0.00 0.00 99 1016.9
20260508082320 44 332 0.0 0.0 0.00 0.00 0.00 99 1016.8
20260508081817 44 11 0.9 0.9 0.00 0.00 0.00 99 1016.9
20260508081314 44 342 0.0 0.0 0.00 0.00 0.00 99 1016.8
20260508080812 44 339 0.0 0.9 0.00 0.00 0.00 99 1016.8
20260508080309 44 349 0.0 0.9 0.00 0.00 0.00 99 1016.7
20260508075806 45 6 0.0 0.9 0.00 0.00 0.00 99 1016.8
20260508075308 45 349 0.0 0.0 0.00 0.00 0.00 99 1016.8
20260508074801 45 355 0.0 0.0 0.00 0.00 0.00 99 1016.8
20260508074257 45 357 0.9 0.9 0.00 0.00 0.00 99 1016.7
20260508073754 45 351 0.0 0.0 0.00 0.00 0.00 99 1017.2
20260508073253 45 358 0.0 0.0 0.00 0.00 0.00 99 1017.0
20260508072748 45 347 0.0 0.0 0.00 0.00 0.00 99 1016.8
20260508072245 45 30 1.7 1.7 0.00 0.00 0.00 99 1016.9
20260508071742 46 358 0.0 0.0 0.00 0.00 0.00 99 1016.6
20260508071241 46 351 0.0 0.0 0.00 0.00 0.00 99 1016.7
20260508070738 46 336 0.0 0.0 0.00 0.00 0.00 99 1016.9
20260508070236 46 341 0.0 0.0 0.00 0.00 0.00 99 1016.9
20260508065733 46 353 0.0 0.0 0.00 0.00 0.00 99 1016.8
20260508065231 46 333 0.0 0.0 0.00 0.00 0.00 99 1016.9
20260508064728 46 340 0.0 0.0 0.00 0.00 0.00 99 1016.9
20260508064227 45 326 0.0 0.0 0.00 0.00 0.00 99 1016.7
20260508063724 45 341 0.0 0.0 0.00 0.00 0.00 99 1016.7
20260508063221 46 319 0.0 0.0 0.00 0.00 0.00 99 1016.6
20260508062719 46 338 0.0 0.0 0.00 0.00 0.00 99 1016.6
20260508062216 46 332 0.0 0.0 0.00 0.00 0.00 99 1016.5
20260508061713 46 331 0.0 0.0 0.00 0.00 0.00 99 1016.7
20260508061210 46 331 0.0 0.0 0.00 0.00 0.00 99 1016.7
20260508060706 46 330 0.0 0.0 0.00 0.00 0.00 99 1016.9
20260508060204 46 330 0.0 0.0 0.00 0.00 0.00 99 1017.1
20260508055659 45 330 0.0 0.0 0.00 0.00 0.00 99 1016.9
20260508055156 45 330 0.0 0.0 0.00 0.00 0.00 99 1016.8
20260508054653 45 330 0.0 0.0 0.00 0.00 0.00 99 1016.9
20260508054151 46 330 0.0 0.0 0.00 0.00 0.00 99 1016.9
20260508053647 46 330 0.0 0.0 0.00 0.00 0.00 99 1017.1
20260508053145 46 332 0.0 0.0 0.00 0.00 0.00 99 1016.9
20260508052642 46 333 0.0 0.0 0.00 0.00 0.00 99 1017.0
20260508052139 46 339 0.0 0.0 0.00 0.00 0.00 99 1017.0
20260508051635 46 331 0.0 0.0 0.00 0.00 0.00 99 1016.8
20260508051131 47 334 0.0 0.0 0.00 0.00 0.00 99 1016.9
20260508050627 47 333 0.0 0.0 0.00 0.00 0.00 99 1016.9
20260508050125 47 332 0.0 0.0 0.00 0.00 0.00 99 1016.9
20260508045620 47 332 0.0 0.0 0.00 0.00 0.00 99 1016.8
20260508045119 47 340 0.0 0.0 0.00 0.00 0.00 99 1016.8
20260508044616 47 331 0.0 0.0 0.00 0.00 0.00 99 1016.7
20260508044111 48 331 0.0 0.0 0.00 0.00 0.00 99 1016.6
20260508043608 48 334 0.0 0.0 0.00 0.00 0.00 99 1016.4
20260508043106 48 336 0.0 0.0 0.00 0.00 0.00 99 1016.4
20260508042602 48 333 0.0 0.0 0.00 0.00 0.00 99 1016.4
20260508042100 48 332 0.0 0.0 0.00 0.00 0.00 99 1016.5
20260508041556 48 332 0.0 0.0 0.00 0.00 0.00 99 1016.4
20260508041052 48 335 0.0 0.0 0.00 0.00 0.00 99 1016.5
20260508040549 48 335 0.0 0.0 0.00 0.00 0.00 99 1016.3
20260508040047 48 333 0.0 0.0 0.00 0.09 0.09 99 1016.2
20260508035544 49 333 0.0 0.0 0.00 0.09 0.09 99 1016.5
20260508035041 49 334 0.0 0.0 0.00 0.09 0.09 99 1016.2
20260508034538 49 331 0.0 0.0 0.00 0.09 0.09 99 1016.1
20260508034035 49 331 0.0 0.0 0.00 0.09 0.09 99 1016.2
20260508033533 49 332 0.0 0.0 0.00 0.09 0.09 99 1016.4
20260508033031 50 331 0.0 0.0 0.00 0.09 0.09 99 1016.3
20260508032527 50 331 0.0 0.0 0.00 0.09 0.09 99 1016.4
20260508032025 50 337 0.0 0.0 0.00 0.09 0.09 99 1016.2
20260508031521 50 334 0.0 0.0 0.00 0.09 0.09 99 1016.1
20260508031017 50 333 0.0 0.0 0.00 0.09 0.09 99 1016.3
20260508030514 50 335 0.0 0.0 0.00 0.09 0.09 99 1016.0
20260508030013 50 343 0.0 0.0 0.00 0.09 0.09 99 1016.4
20260508025508 50 341 0.0 0.0 0.00 0.09 0.09 99 1016.0
20260508025005 50 335 0.0 0.0 0.00 0.09 0.09 99 1015.8
20260508024501 51 332 0.0 0.0 0.00 0.09 0.09 99 1015.8
20260508023958 51 332 0.0 0.0 0.00 0.09 0.09 98 1015.4
20260508023454 51 330 0.0 0.0 0.00 0.09 0.09 98 1015.6
20260508022952 51 340 0.0 0.0 0.00 0.09 0.09 98 1015.7
20260508022447 51 338 0.0 0.0 0.00 0.09 0.09 98 1015.7
20260508021944 51 332 0.0 0.0 0.00 0.09 0.09 98 1015.7
20260508021441 51 334 0.0 0.0 0.00 0.09 0.09 98 1015.6
20260508020937 51 337 0.0 0.0 0.00 0.09 0.09 98 1015.4
20260508020435 52 6 0.9 0.9 0.00 0.09 0.09 98 1015.2
20260508015931 52 341 0.0 0.0 0.00 0.09 0.09 98 1015.4
20260508015429 52 335 0.0 0.0 0.00 0.09 0.09 97 1015.2
20260508014926 52 330 0.0 0.0 0.00 0.09 0.09 97 1015.1
20260508014423 52 329 0.0 0.0 0.00 0.09 0.09 97 1014.9
20260508013918 52 331 0.0 0.0 0.00 0.09 0.09 97 1015.0
20260508013414 52 332 0.0 0.0 0.00 0.09 0.09 96 1014.9
20260508012912 53 330 0.0 0.0 0.00 0.09 0.09 96 1014.7
20260508012409 53 333 0.0 0.0 0.00 0.09 0.09 96 1014.7
20260508011906 53 336 0.0 0.0 0.00 0.09 0.09 96 1014.6
20260508011404 53 335 0.0 0.0 0.00 0.09 0.09 96 1014.4
20260508010901 53 335 0.0 0.0 0.00 0.09 0.09 95 1014.3
20260508010358 53 331 0.0 0.0 0.00 0.09 0.09 95 1014.4
20260508005855 54 329 0.9 0.9 0.00 0.09 0.09 95 1014.4
20260508005352 54 331 0.0 0.0 0.00 0.09 0.09 94 1014.3
20260508004848 54 330 0.0 0.0 0.00 0.09 0.09 93 1014.0
20260508004344 55 333 0.0 0.9 0.00 0.09 0.09 93 1014.1
20260508003841 55 330 0.0 0.0 0.00 0.09 0.09 92 1014.0
20260508003338 55 330 0.0 0.0 0.00 0.09 0.09 92 1014.1
20260508002835 55 329 0.0 0.0 0.00 0.09 0.09 92 1014.1
20260508002332 55 331 0.9 0.9 0.00 0.09 0.09 91 1013.8
20260508001828 56 333 0.0 0.0 0.00 0.09 0.09 90 1013.5
20260508001324 57 344 0.9 0.9 0.00 0.09 0.09 88 1013.8
20260508000821 57 346 0.0 0.9 0.00 0.09 0.09 88 1014.0
20260508000319 57 343 0.0 0.0 0.00 0.09 0.09 87 1013.8
20260507235814 57 345 0.9 0.9 0.00 0.09 0.09 86 1013.7
20260507235311 57 334 0.0 0.0 0.00 0.09 0.09 85 1014.0
20260507234808 58 344 0.0 0.0 0.00 0.09 0.09 84 1013.9
20260507234305 58 55 0.9 1.7 0.00 0.09 0.09 83 1013.9
20260507233801 58 293 0.0 0.0 0.00 0.09 0.09 81 1013.9
20260507233259 59 335 0.9 0.9 0.00 0.09 0.09 80 1013.8
20260507232757 59 335 0.0 0.0 0.00 0.09 0.09 80 1013.8
20260507232253 59 329 0.0 0.0 0.00 0.09 0.09 79 1014.0
20260507231750 59 340 0.9 0.9 0.00 0.09 0.09 78 1013.9
20260507231247 59 330 0.0 0.0 0.00 0.09 0.09 78 1014.1
20260507230743 60 327 0.0 0.9 0.00 0.09 0.09 78 1014.0
20260507230241 60 331 0.0 0.0 0.00 0.09 0.09 78 1013.9
20260507225740 60 327 1.7 1.7 0.00 0.09 0.09 78 1014.0
20260507225237 60 335 0.9 1.7 0.00 0.09 0.09 76 1014.0
20260507224732 60 328 0.0 0.9 0.00 0.09 0.09 75 1014.1
20260507224230 61 325 0.9 1.7 0.00 0.09 0.09 75 1014.2
20260507223726 60 315 0.0 0.9 0.00 0.09 0.09 77 1013.9
20260507223222 59 322 0.9 0.9 0.00 0.09 0.09 78 1013.8
20260507222719 59 327 0.9 0.9 0.00 0.09 0.09 79 1013.9
20260507222216 59 328 0.9 0.9 0.00 0.09 0.09 77 1013.6
20260507221712 59 331 0.0 0.0 0.00 0.09 0.09 78 1013.8
20260507221209 59 335 0.0 0.9 0.00 0.09 0.09 77 1013.7
20260507220705 59 328 0.0 0.0 0.00 0.09 0.09 76 1013.6
20260507220204 60 330 0.9 0.9 0.00 0.09 0.09 78 1013.6
20260507215659 60 335 0.0 0.0 0.00 0.09 0.09 75 1013.6
20260507215157 60 315 0.0 0.9 0.00 0.09 0.09 75 1013.7
20260507214654 59 323 0.0 0.0 0.00 0.09 0.09 77 1013.6
20260507214151 59 333 0.9 0.9 0.00 0.09 0.09 77 1013.5
20260507213646 60 282 0.9 0.9 0.00 0.09 0.09 75 1013.4
20260507213144 61 341 2.6 2.6 0.00 0.09 0.09 73 1013.5
20260507212640 60 328 0.9 1.7 0.00 0.09 0.09 75 1013.5
20260507212137 59 265 0.9 1.7 0.00 0.09 0.09 77 1013.6
20260507211634 58 331 0.0 0.0 0.00 0.09 0.09 78 1013.4
20260507211129 58 334 0.9 0.9 0.00 0.09 0.09 76 1013.5
20260507210627 58 337 1.7 1.7 0.00 0.09 0.09 80 1013.3
20260507210124 59 328 0.0 0.9 0.00 0.09 0.09 79 1013.4
20260507205620 59 322 0.0 0.0 0.00 0.09 0.09 76 1013.3
20260507205117 59 311 0.0 0.0 0.00 0.09 0.09 78 1013.4
20260507204613 60 331 1.7 1.7 0.00 0.09 0.09 76 1013.3
20260507204111 60 31 0.0 0.0 0.00 0.09 0.09 77 1013.3
20260507203608 60 329 0.0 0.0 0.00 0.09 0.09 75 1013.1
20260507203106 59 314 1.7 1.7 0.00 0.09 0.09 76 1013.2
20260507202601 59 58 4.3 5.2 0.00 0.09 0.09 77 1013.4
20260507202058 58 333 1.7 1.7 0.00 0.09 0.09 80 1013.4
20260507201553 58 328 0.0 0.9 0.00 0.09 0.09 81 1013.5
20260507201050 57 330 0.0 0.0 0.00 0.09 0.09 80 1013.7
20260507200545 57 326 0.9 0.9 0.00 0.09 0.09 81 1013.3
20260507200042 57 294 0.9 1.7 0.00 0.09 0.09 83 1013.6
20260507195539 57 331 0.9 0.9 0.00 0.09 0.09 84 1013.7
20260507195037 57 276 2.6 2.6 0.00 0.09 0.09 84 1013.8